GW6995 Weather Reports


Display with metric or nautical units.
time (UTC)temp
F
wind
direction
speed
MPH
gust
MPH
rain 1hr
in
rain 24hr
in
rain mn
in
humidity
%
barometer
mb
20260506113008 67 186 1.0 9.0 0.00 0.00 0.00 68 1010.4
20260506112505 66 175 1.0 2.0 0.00 0.00 0.00 70 1010.4
20260506112002 66 238 1.0 4.0 0.00 0.00 0.00 70 1010.4
20260506111500 66 98 3.0 6.0 0.00 0.00 0.00 71 1010.1
20260506110957 65 193 4.0 6.0 0.00 0.00 0.00 72 1010.3
20260506110455 65 196 4.0 6.0 0.00 0.00 0.00 72 1010.2
20260506105951 65 214 1.0 4.0 0.00 0.00 0.00 73 1010.0
20260506105447 64 160 0.0 4.0 0.00 0.00 0.00 73 1010.0
20260506104945 64 206 2.0 6.0 0.00 0.00 0.00 74 1010.0
20260506104443 64 232 3.0 3.0 0.00 0.00 0.00 74 1010.0
20260506103941 64 195 0.0 3.0 0.00 0.00 0.00 74 1010.1
20260506103438 64 228 1.0 8.0 0.00 0.00 0.00 74 1010.2
20260506102934 64 138 3.0 3.0 0.00 0.00 0.00 74 1010.1
20260506102432 64 112 4.0 4.0 0.00 0.00 0.00 74 1010.1
20260506101929 64 187 1.0 3.0 0.00 0.00 0.00 74 1010.2
20260506101426 64 198 1.0 2.0 0.00 0.00 0.00 74 1010.0
20260506100923 64 280 5.0 7.0 0.00 0.00 0.00 75 1009.8
20260506100422 64 220 2.0 6.0 0.00 0.00 0.00 75 1009.9
20260506095919 63 202 2.0 2.0 0.00 0.00 0.00 76 1009.8
20260506095418 64 208 1.0 2.0 0.00 0.00 0.00 75 1009.9
20260506094913 64 233 1.0 2.0 0.00 0.00 0.00 75 1009.9
20260506094412 63 226 1.0 4.0 0.00 0.00 0.00 76 1009.8
20260506093909 63 201 0.0 1.0 0.00 0.00 0.00 75 1010.0
20260506093407 64 221 2.0 3.0 0.00 0.00 0.00 75 1010.0
20260506092905 64 107 2.0 4.0 0.00 0.00 0.00 75 1009.9
20260506092403 64 215 1.0 2.0 0.00 0.00 0.00 74 1009.7
20260506091859 64 200 1.0 3.0 0.00 0.00 0.00 74 1010.0
20260506091357 64 200 1.0 2.0 0.00 0.00 0.00 74 1009.9
20260506090854 64 212 2.0 3.0 0.00 0.00 0.00 74 1010.1
20260506090352 64 157 0.0 2.0 0.00 0.00 0.00 74 1010.0
20260506085848 64 247 2.0 6.0 0.00 0.00 0.00 73 1010.2
20260506085344 64 224 2.0 6.0 0.00 0.00 0.00 73 1010.1
20260506084841 64 249 1.0 2.0 0.00 0.00 0.00 73 1010.1
20260506084338 64 168 1.0 4.0 0.00 0.00 0.00 72 1010.1
20260506083834 64 276 2.0 4.0 0.00 0.00 0.00 72 1010.2
20260506083332 65 196 1.0 3.0 0.00 0.00 0.00 72 1010.0
20260506082829 65 214 3.0 6.0 0.00 0.00 0.00 71 1010.1
20260506082325 65 190 1.0 7.0 0.00 0.00 0.00 71 1010.1
20260506081822 65 302 2.0 3.0 0.00 0.00 0.00 71 1010.1
20260506081320 65 191 2.0 6.0 0.00 0.00 0.00 71 1010.1
20260506080817 65 166 1.0 3.0 0.00 0.00 0.00 71 1010.2
20260506080313 65 61 1.0 3.0 0.00 0.00 0.00 70 1010.1
20260506073258 65 219 2.0 3.0 0.00 0.00 0.00 68 1010.3
20260506072754 66 184 1.0 2.0 0.00 0.00 0.00 68 1010.2
20260506072252 66 214 2.0 3.0 0.00 0.00 0.00 67 1010.1
20260506071749 66 190 1.0 7.0 0.00 0.00 0.00 67 1010.1
20260506071247 67 89 1.0 4.0 0.00 0.00 0.00 66 1010.5
20260506070744 67 207 3.0 4.0 0.00 0.00 0.00 65 1010.2
20260506070241 67 195 1.0 7.0 0.00 0.00 0.00 65 1010.3
20260506062218 67 200 1.0 6.0 0.00 0.00 0.00 63 1010.3
20260506061714 67 200 1.0 6.0 0.00 0.00 0.00 64 1010.4
20260506061212 67 201 0.0 3.0 0.00 0.00 0.00 63 1010.3
20260506060710 67 199 2.0 3.0 0.00 0.00 0.00 62 1010.4
20260506060207 67 195 0.0 2.0 0.00 0.00 0.00 62 1010.4
20260506051139 69 211 1.0 2.0 0.00 0.00 0.00 59 1011.1
20260506050637 69 128 5.0 7.0 0.00 0.00 0.00 58 1011.0
20260506050134 69 214 4.0 6.0 0.00 0.00 0.00 58 1010.9
20260506045126 69 142 3.0 6.0 0.00 0.00 0.00 57 1010.9
20260506044625 69 85 1.0 10.0 0.00 0.00 0.00 56 1010.8
20260506044122 70 211 1.0 7.0 0.00 0.00 0.00 56 1010.8
20260506043619 69 110 3.0 4.0 0.00 0.00 0.00 56 1010.9
20260506043117 70 209 1.0 7.0 0.00 0.00 0.00 56 1011.0
20260506042616 70 207 2.0 3.0 0.00 0.00 0.00 55 1010.7
20260506042113 70 118 5.0 7.0 0.00 0.00 0.00 55 1010.7
20260506041612 70 285 4.0 6.0 0.00 0.00 0.00 55 1010.8
20260506041108 70 199 0.0 3.0 0.00 0.00 0.00 54 1010.6
20260506040606 70 171 6.0 7.0 0.00 0.00 0.00 54 1010.8
20260506035559 70 183 1.0 4.0 0.00 0.00 0.00 54 1010.5
20260506035056 70 293 0.0 4.0 0.00 0.00 0.00 53 1010.5
20260506034553 70 192 3.0 11.0 0.00 0.00 0.00 53 1010.6
20260506034050 70 96 3.0 6.0 0.00 0.00 0.00 54 1010.8
20260506033547 69 30 1.0 3.0 0.00 0.00 0.00 55 1010.7
20260506033044 69 220 2.0 3.0 0.00 0.00 0.00 55 1010.7
20260506032542 69 135 1.0 2.0 0.00 0.00 0.00 55 1010.5
20260506032038 69 228 2.0 2.0 0.00 0.00 0.00 55 1010.7
20260506031536 70 232 1.0 2.0 0.00 0.00 0.00 55 1010.8
20260506031033 70 144 1.0 6.0 0.00 0.00 0.00 54 1010.6
20260506030531 70 183 3.0 7.0 0.00 0.00 0.00 54 1010.5
20260506030028 70 177 2.0 3.0 0.00 0.00 0.00 54 1010.5
20260506025525 70 236 2.0 3.0 0.00 0.00 0.00 54 1010.6
20260506025020 70 189 2.0 2.0 0.00 0.00 0.00 53 1010.4
20260506024517 71 229 1.0 2.0 0.00 0.00 0.00 53 1010.4
20260506024014 71 178 2.0 3.0 0.00 0.00 0.00 53 1010.4
20260506023510 71 143 4.0 7.0 0.00 0.00 0.00 53 1010.9
20260506023008 71 187 1.0 3.0 0.00 0.00 0.00 52 1010.6
20260506022505 71 198 2.0 4.0 0.00 0.00 0.00 51 1010.5
20260506022003 71 224 1.0 6.0 0.00 0.00 0.00 52 1010.4
20260506021500 71 250 3.0 7.0 0.00 0.00 0.00 51 1010.7
20260506020957 71 219 2.0 8.0 0.00 0.00 0.00 51 1010.6
20260506020454 71 188 2.0 4.0 0.00 0.00 0.00 51 1010.4
20260506015951 72 180 1.0 8.0 0.00 0.00 0.00 50 1010.5
20260506015449 72 145 2.0 7.0 0.00 0.00 0.00 50 1010.6
20260506014946 72 308 2.0 7.0 0.00 0.00 0.00 50 1010.3
20260506014442 72 193 2.0 4.0 0.00 0.00 0.00 50 1010.2
20260506013939 72 118 3.0 6.0 0.00 0.00 0.00 49 1010.1
20260506013437 72 137 2.0 3.0 0.00 0.00 0.00 48 1010.2
20260506012933 72 195 4.0 10.0 0.00 0.00 0.00 47 1010.1
20260506012430 73 70 3.0 4.0 0.00 0.00 0.00 47 1010.1
20260506011927 74 102 2.0 4.0 0.00 0.00 0.00 45 1010.0
20260506011424 75 110 5.0 7.0 0.00 0.00 0.00 43 1009.8
20260506010921 76 185 2.0 3.0 0.00 0.00 0.00 39 1009.8
20260506010420 77 187 3.0 6.0 0.00 0.00 0.00 37 1009.6
20260506005915 77 250 3.0 7.0 0.00 0.00 0.00 37 1009.5
20260506005414 77 176 2.0 10.0 0.00 0.00 0.00 37 1009.4
20260506004908 78 193 5.0 7.0 0.00 0.00 0.00 36 1009.6
20260506004407 78 156 2.0 4.0 0.00 0.00 0.00 36 1009.5
20260506003902 78 186 2.0 7.0 0.00 0.00 0.00 36 1009.4
20260506003359 78 343 2.0 8.0 0.00 0.00 0.00 35 1009.2
20260506002855 78 63 4.0 8.0 0.00 0.00 0.00 34 1009.1
20260506002351 78 201 1.0 3.0 0.00 0.00 0.00 33 1009.2
20260506001848 79 179 2.0 6.0 0.00 0.00 0.00 32 1009.2
20260506001344 79 83 2.0 3.0 0.00 0.00 0.00 33 1009.0
20260506000841 79 193 3.0 4.0 0.00 0.00 0.00 31 1008.9
20260506000340 79 251 2.0 7.0 0.00 0.00 0.00 31 1008.8
20260505235836 79 80 4.0 8.0 0.00 0.00 0.00 31 1009.0
20260505235333 79 187 4.0 6.0 0.00 0.00 0.00 31 1009.0
20260505234830 79 46 2.0 3.0 0.00 0.00 0.00 30 1008.7
20260505234328 79 194 1.0 2.0 0.00 0.00 0.00 30 1008.7
20260505233825 80 302 2.0 8.0 0.00 0.00 0.00 29 1008.7
20260505233322 80 65 3.0 8.0 0.00 0.00 0.00 30 1008.7
20260505232819 80 113 2.0 3.0 0.00 0.00 0.00 29 1008.6
20260505232317 80 229 3.0 6.0 0.00 0.00 0.00 28 1008.4
20260505231814 80 92 4.0 13.0 0.00 0.00 0.00 28 1008.6
20260505231312 80 155 2.0 6.0 0.00 0.00 0.00 28 1008.5
20260505230810 80 248 4.0 8.0 0.00 0.00 0.00 27 1008.5
20260505230306 81 99 2.0 4.0 0.00 0.00 0.00 27 1008.4
20260505225803 81 184 4.0 6.0 0.00 0.00 0.00 27 1008.2
20260505225301 82 208 5.0 10.0 0.00 0.00 0.00 27 1008.3
20260505224800 82 7 4.0 8.0 0.00 0.00 0.00 25 1008.2
20260505224259 82 210 3.0 8.0 0.00 0.00 0.00 26 1007.9
20260505223756 83 161 3.0 11.0 0.00 0.00 0.00 26 1008.0
20260505223252 83 111 3.0 7.0 0.00 0.00 0.00 27 1008.1
20260505222748 83 223 2.0 11.0 0.00 0.00 0.00 27 1007.9
20260505222245 83 6 5.0 8.0 0.00 0.00 0.00 26 1007.9
20260505221742 82 149 3.0 9.0 0.00 0.00 0.00 27 1007.9
20260505221238 82 139 2.0 3.0 0.00 0.00 0.00 27 1007.9
20260505220735 82 144 2.0 9.0 0.00 0.00 0.00 27 1007.9
20260505220233 82 173 1.0 8.0 0.00 0.00 0.00 27 1007.8
20260505215731 83 233 3.0 4.0 0.00 0.00 0.00 27 1007.7
20260505215228 84 226 6.0 10.0 0.00 0.00 0.00 26 1007.6
20260505214726 83 100 1.0 8.0 0.00 0.00 0.00 26 1007.8
20260505214223 83 100 3.0 11.0 0.00 0.00 0.00 26 1007.6
20260505213720 82 251 5.0 13.0 0.00 0.00 0.00 27 1007.5
20260505213218 83 218 3.0 8.0 0.00 0.00 0.00 26 1007.6
20260505212713 84 308 1.0 10.0 0.00 0.00 0.00 27 1007.6
20260505212211 84 226 5.0 7.0 0.00 0.00 0.00 26 1007.4
20260505211708 84 222 5.0 10.0 0.00 0.00 0.00 27 1007.7
20260505211206 84 258 4.0 11.0 0.00 0.00 0.00 27 1007.4
20260505210702 85 192 3.0 8.0 0.00 0.00 0.00 27 1007.6
20260505210159 85 276 3.0 9.0 0.00 0.00 0.00 27 1007.4
20260505205656 85 255 8.0 14.0 0.00 0.00 0.00 24 1007.6
20260505205154 85 188 4.0 6.0 0.00 0.00 0.00 28 1007.4
20260505204650 85 144 4.0 15.0 0.00 0.00 0.00 26 1007.7
20260505204148 85 182 2.0 10.0 0.00 0.00 0.00 27 1007.5
20260505203645 85 275 6.0 8.0 0.00 0.00 0.00 26 1007.8
20260505203143 86 123 10.0 15.0 0.00 0.00 0.00 26 1007.6
20260505202638 84 210 2.0 3.0 0.00 0.00 0.00 29 1007.6
20260505202134 85 220 9.0 14.0 0.00 0.00 0.00 25 1007.6
20260505201630 85 307 8.0 11.0 0.00 0.00 0.00 26 1007.4
20260505201129 85 182 6.0 10.0 0.00 0.00 0.00 26 1007.6
20260505200627 85 36 4.0 8.0 0.00 0.00 0.00 25 1007.8
20260505200124 86 142 8.0 14.0 0.00 0.00 0.00 25 1007.6
20260505195620 86 232 3.0 7.0 0.00 0.00 0.00 25 1008.0
20260505195117 85 278 3.0 6.0 0.00 0.00 0.00 26 1008.0
20260505194614 85 163 4.0 10.0 0.00 0.00 0.00 26 1007.9
20260505194109 86 248 2.0 9.0 0.00 0.00 0.00 29 1008.1
20260505193607 86 109 3.0 8.0 0.00 0.00 0.00 28 1008.2
20260505193103 85 230 7.0 15.0 0.00 0.00 0.00 25 1008.4
20260505192602 85 315 6.0 10.0 0.00 0.00 0.00 25 1008.3
20260505192059 86 113 8.0 14.0 0.00 0.00 0.00 26 1008.7
20260505191557 86 206 4.0 9.0 0.00 0.00 0.00 27 1008.3
20260505191055 86 115 2.0 9.0 0.00 0.00 0.00 29 1008.4
20260505190549 86 294 5.0 13.0 0.00 0.00 0.00 27 1008.6
20260505190046 85 87 4.0 11.0 0.00 0.00 0.00 32 1008.4
20260505185543 85 86 7.0 14.0 0.00 0.00 0.00 31 1008.7
20260505185039 85 163 5.0 9.0 0.00 0.00 0.00 31 1008.9
20260505184536 85 115 7.0 9.0 0.00 0.00 0.00 29 1009.0
20260505184033 85 213 1.0 7.0 0.00 0.00 0.00 32 1009.0
20260505183529 85 349 4.0 10.0 0.00 0.00 0.00 30 1009.0
20260505183027 85 97 3.0 8.0 0.00 0.00 0.00 31 1009.0
20260505182523 84 198 4.0 10.0 0.00 0.00 0.00 30 1009.0
20260505182020 84 154 7.0 13.0 0.00 0.00 0.00 31 1009.2
20260505181516 85 80 6.0 15.0 0.00 0.00 0.00 29 1009.2
20260505181014 85 217 5.0 7.0 0.00 0.00 0.00 34 1009.0
20260505180509 85 193 4.0 8.0 0.00 0.00 0.00 35 1009.1
20260505180008 84 203 3.0 7.0 0.00 0.00 0.00 36 1009.1
20260505175502 85 270 5.0 7.0 0.00 0.00 0.00 33 1009.4
20260505175000 84 138 1.0 8.0 0.00 0.00 0.00 38 1009.1
20260505174457 83 206 5.0 7.0 0.00 0.00 0.00 37 1009.1
20260505173953 83 154 3.0 4.0 0.00 0.00 0.00 37 1009.3
20260505173449 83 243 3.0 6.0 0.00 0.00 0.00 38 1009.2
20260505172946 83 86 6.0 10.0 0.00 0.00 0.00 35 1009.4
20260505172445 83 73 1.0 6.0 0.00 0.00 0.00 41 1009.5
20260505171944 82 153 2.0 6.0 0.00 0.00 0.00 41 1009.5
20260505171441 82 229 4.0 9.0 0.00 0.00 0.00 38 1009.5
20260505170937 82 318 6.0 10.0 0.00 0.00 0.00 39 1009.6
20260505170434 82 110 1.0 2.0 0.00 0.00 0.00 44 1009.6
20260505165930 82 117 4.0 8.0 0.00 0.00 0.00 38 1009.7
20260505165426 82 270 2.0 4.0 0.00 0.00 0.00 36 1009.8
20260505164921 81 300 3.0 8.0 0.00 0.00 0.00 41 1010.0
20260505164418 81 201 4.0 8.0 0.00 0.00 0.00 39 1010.0
20260505163916 82 240 6.0 10.0 0.00 0.00 0.00 39 1010.0
20260505163415 82 93 2.0 3.0 0.00 0.00 0.00 41 1009.9
20260505162913 82 138 3.0 3.0 0.00 0.00 0.00 38 1010.2
20260505162409 81 283 1.0 3.0 0.00 0.00 0.00 41 1010.4
20260505161906 82 190 5.0 7.0 0.00 0.00 0.00 38 1010.3
20260505161403 81 123 3.0 6.0 0.00 0.00 0.00 39 1010.4
20260505160900 80 190 2.0 6.0 0.00 0.00 0.00 42 1010.4
20260505160358 80 135 3.0 7.0 0.00 0.00 0.00 39 1010.6
20260505153337 78 84 2.0 4.0 0.00 0.00 0.00 42 1011.3
20260505152834 80 140 4.0 8.0 0.00 0.00 0.00 41 1010.9
20260505152332 80 203 2.0 2.0 0.00 0.00 0.00 43 1011.0
20260505151831 78 144 1.0 2.0 0.00 0.00 0.00 44 1011.2
20260505151328 77 8 2.0 8.0 0.00 0.00 0.00 41 1011.2
20260505150825 76 120 1.0 2.0 0.00 0.00 0.00 44 1011.3
20260505150322 77 171 1.0 3.0 0.00 0.00 0.00 45 1011.0
20260505140246 74 98 1.0 3.0 0.00 0.00 0.00 47 1011.6
20260505130210 70 143 1.0 2.0 0.00 0.00 0.00 52 1011.3
20260505124700 68 97 1.0 1.0 0.00 0.00 0.00 58 1011.3
20260505124157 67 119 2.0 3.0 0.00 0.00 0.00 57 1011.1
20260505123653 67 93 3.0 3.0 0.00 0.00 0.00 58 1011.4
20260505123150 66 196 2.0 3.0 0.00 0.00 0.00 59 1011.3
20260505122646 66 134 2.0 3.0 0.00 0.00 0.00 61 1011.4
20260505122144 66 121 2.0 3.0 0.00 0.00 0.00 62 1011.4
20260505121640 65 168 1.0 2.0 0.00 0.00 0.00 65 1011.5
20260505121137 63 136 0.0 4.0 0.00 0.00 0.00 70 1011.6
20260505120633 61 138 0.0 1.0 0.00 0.00 0.00 72 1011.5
20260505120129 60 104 1.0 2.0 0.00 0.00 0.00 72 1011.5
20260505115623 60 202 1.0 1.0 0.00 0.00 0.00 74 1011.6
20260505115121 60 178 1.0 2.0 0.00 0.00 0.00 74 1011.4
20260505114618 59 215 1.0 2.0 0.00 0.00 0.00 77 1011.5
20260505114114 58 274 2.0 2.0 0.00 0.00 0.00 77 1011.3
20260505113611 58 202 0.0 1.0 0.00 0.00 0.00 80 1011.7